Track STARLINK-4031 now! 10-day predictions STARLINK-4031 is classified as:
1 52679U 22053Z 22224.83335648 .00014597 00000-0 93381-3 0 9996 2 52679 53.2128 241.8448 0002112 45.6185 38.2143 15.08820629 13767